P/2008 J3 ( McNaught )

Japanese version
Home page
Total 6,336 html files since Dec. 4, 1995
Updated on July 20, 2008

---------------------------------------------------------------------

* Profile

Discovery Date May 10, 2008
Magnitude 18.4 mag
Discoverer R. H. McNaught (Siding Spring)

* Orbital Elements

Epoch 2009 Mar. 30.0 TT = JDT 2454920.5
T 2009 Mar. 10.72812 TT                                 MPC
q   2.2876645            (2000.0)            P               Q
n   0.12839229     Peri.    4.38585     +0.97051198     -0.22958896
a   3.8914378      Node     9.86061     +0.20605726     +0.63203469
e   0.4121287      Incl.   25.39909     +0.12508760     +0.74014935
P   7.68

* Finding Charts

* Magnitudes Graph

        m1 = 11.5 + 5 log d + 10.0 log r

---------------------------------------------------------------------

The orbital elements are published on M.P.E.C. 2008-N40.
The charts are made with StellaNavigator Ver.8 (AstroArts).
The magnitudes graphs are made with Comet for Windows.

---------------------------------------------------------------------

Copyright(C) 1995-2008 Seiichi Yoshida (comet@aerith.net). All rights reserved.